map of KAKH home
KAKH - Airport
Location
City:  Gastonia, North Carolina, United States
Name:Gastonia Municipal Airport
ICAO:KAKH
FAA LID:AKH

Details
Type:Airport (Airfield)
Use:Public/Civil
Latitude:3512'10"N (35.202639)
Longitude:8109'00"W (-81.149888)
Datum:WGS 1984
Elevation:797 ft (243 m)
Variation:7.58W (WMM2015 magnetic declination)
-0.06 annual change
Runways:1
Longest:3770 × 100 ft (1149 × 30.5 m), paved

Time
Time Zone:UTC-5 (DST-4)
Local Time:

Weather
METAR:KAKH 221554Z AUTO 19006KT 10SM FEW026 SCT041 SCT048 27/21 A3015 RMK AO2 SLP204 T02670206

Related Locations
Nearby:
Farthest:YAUG: 11515 mi / 18532 km
Augusta [Augusta Airport], WA, AU

Find:

   beyond  
but within

Other Information
Maps:
NOTAMs:
Links:
Sources:

  
flag of United States
flag of North Carolina
  

Sectional Chart

Flight Planning
at skyvector.com

Satellite Image

Google Maps Satellite view

 

Copyright © 2004-2018 Karl L. Swartz. All rights reserved.
The Great Circle Mapper name and logo are trademarks of the Great Circle Mapper.
All other trademarks mentioned herein belong to their respective owners.
Please see credits for attibutions and further copyright information.

  Follow gcmap on Facebook Follow gcmap on Twitter Follow gcmap on Google+ GCmap on LinkedIn

hCard Microformat

Geo Microformat